Change the Weather History Date:

Thursday, November 29, 2012

  Actual Average (KBDE) Record (KBDE)
Temperature  
Mean Temperature 14 °F -  
Max Temperature 17 °F 26 °F 47 °F (1932)
Min Temperature 10 °F 9 °F -29 °F (1985)
Degree Days  
Heating Degree Days 52    
Moisture  
Dew Point 9 °F    
Average Humidity 81    
Maximum Humidity 92    
Minimum Humidity 68    
Precipitation  
Precipitation 0.00 in - - ()
Sea Level Pressure  
Sea Level Pressure 30.20 in    
Wind  
Wind Speed 9 mph (NE)    
Max Wind Speed 14 mph    
Max Gust Speed 17 mph    
Visibility 10 miles    
Events      
Averages and records for this station are not official NWS values.
T = Trace of Precipitation, MM = Missing Value Source: NWS Daily Summary

Daily Weather History Graph

Daily Weather History Graph

Search for Another Location

Airport or City:

Trip Planner

Search our weather history database for the weather conditions in past years. The results will help you decide how hot, cold, wet, or windy it might be!

Date:

Astronomy

Nov. 29, 2012 Rise Set
Actual Time 7:45 AM CST 4:27 PM CST
Civil Twilight 7:10 AM CST 5:02 PM CST
Nautical Twilight 6:31 AM CST 5:41 PM CST
Astronomical Twilight 5:53 AM CST 6:19 PM CST
Moon 5:30 PM CST (11/29) 8:33 AM CST (11/29)
Length of Visible Light 9h 52m
Length of Day
8h 41m
Full, 99% of the Moon is Illuminated
Nov 29
Full
Dec 6
Last Quarter
Dec 13
New
Dec 19
First Quarter
Dec 28
Full

Hourly Weather History & Observations

Time (CST) Temp. Windchill Dew Point Humidity Pressure Visibility Wind Dir Wind Speed Gust Speed Precip Events Conditions
12:09 AM 14.0 °F 2.0 °F 10.4 °F 86% 30.15 in 10.0 mi North 9.2 mph - N/A   Overcast
12:29 AM 14.0 °F 3.9 °F 10.4 °F 86% 30.14 in 10.0 mi North 6.9 mph - N/A   Overcast
12:49 AM 12.2 °F 1.7 °F 8.6 °F 85% 30.15 in 10.0 mi North 6.9 mph - N/A   Overcast
1:09 AM 12.2 °F 2.9 °F 8.6 °F 85% 30.15 in 10.0 mi NNE 5.8 mph - N/A   Scattered Clouds
1:29 AM 12.2 °F 0.7 °F 8.6 °F 85% 30.16 in 10.0 mi North 8.1 mph - N/A   Clear
1:49 AM 10.4 °F -0.4 °F 8.6 °F 92% 30.16 in 10.0 mi North 6.9 mph - N/A   Clear
2:09 AM 10.4 °F 0.8 °F 8.6 °F 92% 30.15 in 10.0 mi NNE 5.8 mph - N/A   Clear
2:29 AM 10.4 °F -1.5 °F 8.6 °F 92% 30.16 in 10.0 mi NNE 8.1 mph - N/A   Scattered Clouds
2:49 AM 10.4 °F -1.5 °F 8.6 °F 92% 30.17 in 10.0 mi North 8.1 mph - N/A   Overcast
3:09 AM 10.4 °F -0.4 °F 6.8 °F 85% 30.18 in 10.0 mi North 6.9 mph - N/A   Mostly Cloudy
3:29 AM 10.4 °F 2.2 °F 6.8 °F 85% 30.16 in 10.0 mi NNE 4.6 mph - N/A   Mostly Cloudy
3:49 AM 10.4 °F 0.8 °F 8.6 °F 92% 30.17 in 10.0 mi North 5.8 mph - N/A   Overcast
4:09 AM 10.4 °F 0.8 °F 8.6 °F 92% 30.17 in 10.0 mi NNE 5.8 mph - N/A   Overcast
4:29 AM 10.4 °F 0.8 °F 8.6 °F 92% 30.17 in 10.0 mi NE 5.8 mph - N/A   Overcast
4:49 AM 12.2 °F 2.9 °F 8.6 °F 85% 30.18 in 10.0 mi NNE 5.8 mph - N/A   Overcast
5:08 AM 12.2 °F 2.9 °F 8.6 °F 85% 30.17 in 10.0 mi NE 5.8 mph - N/A   Overcast
5:29 AM 12.2 °F 2.9 °F 8.6 °F 85% 30.18 in 10.0 mi NNE 5.8 mph - N/A   Overcast
5:49 AM 12.2 °F -0.2 °F 8.6 °F 85% 30.18 in 10.0 mi NE 9.2 mph - N/A   Overcast
6:08 AM 12.2 °F 0.7 °F 8.6 °F 85% 30.19 in 10.0 mi NNE 8.1 mph - N/A   Overcast
6:29 AM 12.2 °F -1.0 °F 8.6 °F 85% 30.19 in 10.0 mi NE 10.4 mph - N/A   Overcast
6:49 AM 12.2 °F -3.1 °F 8.6 °F 85% 30.18 in 10.0 mi NE 13.8 mph - N/A   Overcast
7:08 AM 12.2 °F -1.0 °F 8.6 °F 85% 30.18 in 10.0 mi NE 10.4 mph - N/A   Overcast
7:29 AM 12.2 °F -1.8 °F 8.6 °F 85% 30.19 in 10.0 mi ENE 11.5 mph - N/A   Overcast
7:49 AM 12.2 °F -1.8 °F 6.8 °F 79% 30.20 in 10.0 mi NE 11.5 mph - N/A   Overcast
8:08 AM 12.2 °F -0.2 °F 8.6 °F 85% 30.20 in 10.0 mi ENE 9.2 mph - N/A   Overcast
8:29 AM 12.2 °F -0.2 °F 6.8 °F 79% 30.22 in 10.0 mi NE 9.2 mph - N/A   Overcast
8:49 AM 12.2 °F 0.7 °F 6.8 °F 79% 30.23 in 10.0 mi NE 8.1 mph - N/A   Overcast
9:08 AM 12.2 °F -1.0 °F 6.8 °F 79% 30.22 in 10.0 mi NE 10.4 mph - N/A   Overcast
9:29 AM 12.2 °F -1.0 °F 6.8 °F 79% 30.23 in 10.0 mi NE 10.4 mph - N/A   Overcast
9:49 AM 12.2 °F -1.0 °F 6.8 °F 79% 30.24 in 10.0 mi NE 10.4 mph - N/A   Overcast
10:09 AM 12.2 °F 0.7 °F 8.6 °F 85% 30.25 in 10.0 mi NE 8.1 mph - N/A   Overcast
10:29 AM 14.0 °F 2.0 °F 8.6 °F 79% 30.25 in 10.0 mi NE 9.2 mph - N/A   Overcast
10:49 AM 14.0 °F 1.2 °F 8.6 °F 79% 30.25 in 10.0 mi ENE 10.4 mph - N/A   Overcast
11:09 AM 14.0 °F 2.0 °F 8.6 °F 79% 30.24 in 10.0 mi ENE 9.2 mph - N/A   Overcast
11:29 AM 14.0 °F 2.0 °F 8.6 °F 79% 30.24 in 10.0 mi NE 9.2 mph - N/A   Overcast
11:49 AM 14.0 °F 2.9 °F 8.6 °F 79% 30.24 in 10.0 mi ENE 8.1 mph - N/A   Overcast
12:09 PM 15.8 °F 5.1 °F 8.6 °F 73% 30.23 in 10.0 mi ENE 8.1 mph - N/A   Overcast
12:29 PM 15.8 °F 3.4 °F 8.6 °F 73% 30.22 in 10.0 mi NE 10.4 mph - N/A   Overcast
12:49 PM 15.8 °F 5.1 °F 8.6 °F 73% 30.21 in 10.0 mi NE 8.1 mph - N/A   Overcast
1:09 PM 15.8 °F 3.4 °F 8.6 °F 73% 30.21 in 10.0 mi NE 10.4 mph - N/A   Overcast
1:29 PM 17.6 °F 7.3 °F 10.4 °F 73% 30.21 in 10.0 mi NE 8.1 mph - N/A   Overcast
1:49 PM 15.8 °F 4.2 °F 8.6 °F 73% 30.21 in 10.0 mi ENE 9.2 mph - N/A   Overcast
2:09 PM 17.6 °F 5.0 °F 8.6 °F 68% 30.20 in 10.0 mi ENE 11.5 mph - N/A   Overcast
2:29 PM 15.8 °F 4.2 °F 8.6 °F 73% 30.20 in 10.0 mi NE 9.2 mph - N/A   Overcast
2:49 PM 15.8 °F 3.4 °F 8.6 °F 73% 30.20 in 10.0 mi NE 10.4 mph - N/A   Scattered Clouds
3:09 PM 15.8 °F 2.7 °F 8.6 °F 73% 30.21 in 10.0 mi NE 11.5 mph - N/A   Mostly Cloudy
3:29 PM 15.8 °F 4.2 °F 8.6 °F 73% 30.21 in 10.0 mi NE 9.2 mph - N/A   Mostly Cloudy
3:49 PM 15.8 °F 5.1 °F 8.6 °F 73% 30.22 in 10.0 mi NE 8.1 mph - N/A   Clear
4:09 PM 15.8 °F 3.4 °F 8.6 °F 73% 30.22 in 10.0 mi ENE 10.4 mph - N/A   Clear
4:29 PM 15.8 °F 2.1 °F 8.6 °F 73% 30.21 in 10.0 mi ENE 12.7 mph 16.1 mph N/A   Clear
4:48 PM 15.8 °F 2.1 °F 8.6 °F 73% 30.22 in 10.0 mi ENE 12.7 mph - N/A   Mostly Cloudy
5:09 PM 15.8 °F 2.7 °F 8.6 °F 73% 30.21 in 10.0 mi ENE 11.5 mph - N/A   Overcast
5:29 PM 14.0 °F 0.5 °F 8.6 °F 79% 30.21 in 10.0 mi ENE 11.5 mph - N/A   Overcast
5:48 PM 14.0 °F 0.5 °F 8.6 °F 79% 30.21 in 10.0 mi ENE 11.5 mph - N/A   Overcast
6:09 PM 14.0 °F 2.0 °F 8.6 °F 79% 30.22 in 10.0 mi ENE 9.2 mph - N/A   Overcast
6:28 PM 14.0 °F 1.2 °F 8.6 °F 79% 30.22 in 10.0 mi ENE 10.4 mph 16.1 mph N/A   Overcast
6:49 PM 14.0 °F 1.2 °F 8.6 °F 79% 30.22 in 10.0 mi ENE 10.4 mph 17.3 mph N/A   Overcast
7:09 PM 15.8 °F 3.4 °F 8.6 °F 73% 30.22 in 10.0 mi ENE 10.4 mph - N/A   Overcast
7:28 PM 15.8 °F 4.2 °F 8.6 °F 73% 30.22 in 10.0 mi East 9.2 mph - N/A   Overcast
7:49 PM 15.8 °F 3.4 °F 8.6 °F 73% 30.22 in 10.0 mi ENE 10.4 mph - N/A   Overcast
8:09 PM 15.8 °F 5.1 °F 10.4 °F 79% 30.22 in 10.0 mi ENE 8.1 mph - N/A   Overcast
8:28 PM 15.8 °F 4.2 °F 10.4 °F 79% 30.22 in 10.0 mi ENE 9.2 mph - N/A   Overcast
8:49 PM 15.8 °F 3.4 °F 10.4 °F 79% 30.22 in 10.0 mi ENE 10.4 mph - N/A   Overcast
9:09 PM 15.8 °F 4.2 °F 10.4 °F 79% 30.22 in 10.0 mi ENE 9.2 mph - N/A   Overcast
9:28 PM 15.8 °F 4.2 °F 10.4 °F 79% 30.22 in 10.0 mi ENE 9.2 mph - N/A   Overcast
9:49 PM 15.8 °F 4.2 °F 10.4 °F 79% 30.23 in 10.0 mi ENE 9.2 mph - N/A   Overcast
10:09 PM 15.8 °F 5.1 °F 10.4 °F 79% 30.23 in 10.0 mi ENE 8.1 mph - N/A   Overcast
10:28 PM 15.8 °F 4.2 °F 10.4 °F 79% 30.24 in 7.0 mi NE 9.2 mph - N/A   Overcast
10:49 PM 14.0 °F 2.0 °F 10.4 °F 86% 30.24 in 10.0 mi ENE 9.2 mph - N/A   Overcast
11:09 PM 14.0 °F 2.0 °F 10.4 °F 86% 30.23 in 10.0 mi ENE 9.2 mph - N/A   Overcast
11:28 PM 14.0 °F 0.5 °F 10.4 °F 86% 30.23 in 10.0 mi ENE 11.5 mph - N/A   Overcast
11:49 PM 14.0 °F 0.5 °F 10.4 °F 86% 30.23 in 10.0 mi ENE 11.5 mph - N/A   Overcast